This demonstration page uses our WeatherBlox Daily Observations layout. Learn more.

Left ArrowRight Arrow

Hourly Observations for April 11, 2021

Temp ( °F °C ) Dew Point ( °F °C ) Humidity (%) Winds ( mph kmh ) Pressure ( in mb ) Visibility ( mi km ) Precip ( " mm )
12:59 am 00:59 Cloudy 66 18.9 60 15.6 81 81 S 6 9 29.70 1006 10 16 0.00 0.00
1:59 am 01:59 Cloudy 67 19.4 61 16.1 81 81 S 7 11 29.67 1005 10 16 0.00 0.00
2:59 am 02:59 Cloudy 68 20 62 16.7 81 81 SSE 8 13 29.66 1004 10 16 0.00 0.00
3:59 am 03:59 Cloudy with Light Rain 68 20 63 17.2 84 84 S 7 11 29.63 1003 10 16 0.00 0.00
4:59 am 04:59 Cloudy with Light Rain 67 19.4 64 17.8 91 91 S 5 7 29.61 1003 5 8 0.04 1.02
5:59 am 05:59 Cloudy with Light Rain 65 18.3 62 16.7 90 90 ESE 6 9 29.57 1001 8 13 0.06 1.52
6:55 am 06:55 Cloudy 64 18 63 17 94 94 WNW 9 15 29.58 1002 9 14 0.00 0.00
6:59 am 06:59 Cloudy 65 18.3 61 16.1 87 87 WNW 6 9 29.57 1001 8 13 0.00 0.00
7:12 am 07:12 Cloudy 65 18.3 61 16.1 87 87 W 6 9 29.58 1002 9 14 0.00 0.00
7:35 am 07:35 Mostly Cloudy 64 17.8 60 15.6 87 87 W 3 6 29.58 1002 9 14 0.00 0.00
7:59 am 07:59 Partly Cloudy 64 17.8 59 15 84 84 Calm 29.59 1002 10 16 0.00 0.00
8:59 am 08:59 Partly Cloudy 67 19.4 61 16.1 81 81 SW 8 13 29.59 1002 10 16 0.00 0.00
9:59 am 09:59 Mostly Cloudy 70 21.1 62 16.7 76 76 WSW 16 26 29.59 1002 10 16 0.00 0.00
10:59 am 10:59 Mostly Cloudy 71 21.7 60 15.6 68 68 W 14 22 29.60 1002 10 16 0.00 0.00
11:17 am 11:17 Mostly Sunny 72 22.2 60 15.6 66 66 W 14 22 29.60 1002 10 16 0.00 0.00
11:59 am 11:59 Mostly Cloudy 74 23.3 61 16.1 64 64 WSW 13 20 29.60 1002 10 16 0.00 0.00
12:59 pm 12:59 Partly Cloudy 74 23.3 61 16.1 64 64 W 10 17 29.56 1001 10 16 0.00 0.00
1:59 pm 13:59 Mostly Cloudy 76 24.4 60 15.6 58 58 SSW 7 11 29.54 1000 10 16 0.00 0.00
2:59 pm 14:59 Mostly Cloudy 77 25 58 14.4 52 52 WSW 8 13 29.53 1000 10 16 0.00 0.00
3:59 pm 15:59 Mostly Cloudy 79 26.1 56 13.3 45 45 SW 14 22 29.51 999 10 16 0.00 0.00
4:59 pm 16:59 Mostly Cloudy 77 25 55 12.8 47 47 SSW 12 19 29.49 999 10 16 0.00 0.00
5:59 pm 17:59 Cloudy 77 25 55 12.8 47 47 SSW 8 13 29.49 999 10 16 0.00 0.00
6:59 pm 18:59 Mostly Cloudy 75 23.9 56 13.3 52 52 SSW 5 7 29.48 998 10 16 0.00 0.00
7:59 pm 19:59 Mostly Cloudy 74 23.3 55 12.8 52 52 SSW 6 9 29.50 999 10 16 0.00 0.00
8:59 pm 20:59 Mostly Cloudy 72 22.2 56 13.3 57 57 S 6 9 29.50 999 10 16 0.00 0.00
9:22 pm 21:22 Mostly Cloudy with Thunderstorms 73 22.8 56 13.3 55 55 SSW 7 11 29.53 1000 10 16 0.00 0.00
9:59 pm 21:59 Mostly Cloudy with Thunderstorms 65 18.3 59 15 81 81 S 5 7 29.53 1000 10 16 0.03 0.76
10:27 pm 22:27 Mostly Cloudy 64 17.8 58 14.4 81 81 S 3 6 29.53 1000 10 16 0.00 0.00
10:59 pm 22:59 Partly Cloudy 64 17.8 59 15 84 84 Calm 29.53 1000 10 16 0.00 0.00
11:59 pm 23:59 Mostly Clear 66 18.9 58 14.4 75 75 SSW 6 9 29.54 1000 10 16 0.00 0.00

Powered by AerisWeather